カタログに戻る

TITAN 3C TRANSTAGE DEB

LostHEO
NORAD 34163·DEBRIS·🇺🇸 United States

打ち上げ Dec 21, 1965 から Cape Canaveral Space Force Station

Loading…

次のパス (今後24時間)

TLE

古いSource: Space-Track

元期: Dec 7, 2025, 10:50 UTC

1 34163U 65108CW  25341.45164660 -.00000085  00000-0  00000-0 0  9998
2 34163  26.5966 101.9498 6703293 204.8699 107.4767  2.49400419 19503

AllMySatでTITAN 3C TRANSTAGE DEBをリアルタイム追跡

Download on the App Store